Dewpoint
74 76 76 76 76 76 75 76 75 75 73 73 73 72 72 71 70 69 71 70 71 70 70 69 69 68 66 66 65 67 68 66 65 65 67 67 67 66 64 63 63 63 64 63 61 62 63 62 63 63 64 63 62 62 62 63 63 62 62 62 62 62 62 61 60 60 61 62 60 59 58 60 59 61 62 61 62 63 64 63 63 62 62 63 63
74 76 77 76 76 76 76 76 76 75 74 73 73 72 72 72 72 71 69 71 71 70 71 68 68 67 66 67 67 66 67 67 63 65 66 66 66 64 63 63 63 63 63 63 63 63 63 63 63 63 63 62 62 61 62 60 60 58 59 59 59 60 62 61 61 60 60 62 60 61 59 58 58 61 60 60 60 62 61 63 62 61 61 61 60
71 76 77 77 77 77 76 76 76 76 74 73 70 70 71 72 72 72 69 69 71 71 70 68 69 68 67 67 68 67 67 67 67 67 66 66 65 63 63 64 64 63 63 63 63 63 63 63 62 62 61 61 61 61 61 61 59 60 60 62 62 62 63 63 62 60 60 60 61 59 59 59 59 59 60 59 62 62 62 63 61 62 62 61 61
67 74 76 76 76 77 76 76 75 74 72 72 70 68 69 72 73 72 70 67 70 71 71 70 69 70 68 67 67 67 67 67 66 66 65 65 65 66 65 64 64 63 63 63 62 63 62 62 61 60 61 61 61 61 60 60 61 63 63 63 63 63 63 64 64 63 60 60 62 61 60 60 60 61 61 61 60 61 62 63 63 62 62 62 61
61 70 74 74 74 76 75 74 74 73 71 70 69 67 68 69 71 71 69 67 71 70 71 70 70 70 68 67 68 68 67 68 67 65 63 63 64 63 65 65 64 63 63 64 63 63 62 61 60 60 61 61 61 60 59 60 60 61 62 64 65 63 62 62 64 65 63 63 62 62 62 61 61 61 62 61 60 60 61 61 61 62 63 62 61
60 68 73 73 74 75 75 74 73 72 71 68 68 67 68 70 70 69 68 68 71 70 70 70 70 71 70 69 69 70 70 69 67 65 63 62 63 63 64 64 64 64 63 63 63 63 63 62 61 61 60 60 60 59 60 60 60 60 61 64 65 66 65 64 64 64 65 65 64 62 63 60 61 62 62 62 60 59 60 60 61 62 64 61 59
65 66 72 72 74 75 74 74 74 73 71 71 71 66 65 68 65 64 67 69 70 70 71 71 72 72 71 71 71 70 69 67 66 65 64 64 64 65 64 64 63 63 63 62 62 63 63 63 63 60 61 61 60 59 60 60 62 64 65 63 63 66 65 64 64 64 65 65 65 63 63 62 61 60 63 63 62 60 59 61 61 59 61 60 60
65 68 72 74 74 74 75 75 74 73 72 73 73 69 71 70 69 69 70 71 70 71 71 72 72 72 71 71 70 69 68 66 65 65 65 65 65 65 65 64 63 64 65 64 63 61 62 60 59 60 62 62 61 63 62 62 63 62 63 63 62 62 63 63 62 61 61 60 60 59 61 61 61 61 61 62 62 62 60 58 57 58 59 62 62
67 66 71 74 75 76 76 75 75 74 73 74 73 72 72 72 70 72 73 72 71 71 71 70 70 70 69 67 67 66 65 63 63 63 64 65 66 65 65 64 64 64 65 64 65 65 64 63 61 65 66 67 67 68 67 67 67 64 65 64 64 63 61 61 61 61 62 60 59 60 60 59 59 60 60 60 60 60 60 60 59 59 59 59 61
71 68 68 73 75 76 76 76 75 75 74 74 73 73 73 73 73 73 72 72 71 70 70 70 67 66 66 66 65 64 63 63 62 60 63 66 67 66 65 65 65 64 65 66 64 63 61 60 67 65 65 65 69 67 65 64 63 65 65 64 63 63 63 62 62 62 61 60 58 58 58 57 58 58 56 57 58 58 57 60 58 58 60 61 60
70 70 72 74 76 76 77 76 75 76 76 75 75 74 73 73 73 73 72 72 71 70 70 68 64 63 62 61 62 64 63 62 60 60 61 64 67 67 65 65 66 65 64 66 65 62 61 63 65 65 67 66 67 65 64 63 63 63 63 63 64 65 62 62 61 60 60 58 57 57 57 56 58 58 57 56 56 55 58 59 58 58 58 56 55
70 74 72 76 77 76 76 75 75 75 75 74 74 74 73 73 73 73 72 72 72 71 69 68 66 63 62 62 64 64 63 60 59 60 61 62 64 68 66 65 64 65 66 65 65 63 62 63 64 67 67 65 66 67 67 65 64 63 63 63 63 62 62 64 62 60 60 59 58 57 57 58 58 58 56 56 60 59 60 59 59 57 57 56 56
73 75 75 76 77 76 75 74 74 74 74 74 73 73 72 72 71 70 70 72 71 71 70 67 65 62 62 63 62 61 61 60 60 60 61 61 62 65 65 65 64 66 66 65 64 64 65 66 64 67 68 68 67 67 67 66 65 65 65 65 64 63 61 60 60 63 63 63 60 59 59 59 60 60 59 61 62 60 60 58 58 58 58 57 57
75 75 76 76 76 75 74 73 73 73 73 73 73 72 72 71 71 70 70 71 71 69 69 67 66 65 65 65 64 62 63 61 60 59 59 60 61 64 66 65 66 66 66 65 65 66 67 67 67 66 67 68 68 67 66 65 65 66 66 66 65 65 64 61 60 59 61 62 63 62 62 63 62 61 63 63 61 59 58 57 58 57 57 57 59
77 77 76 76 76 75 74 73 73 73 73 73 73 72 72 72 71 71 69 69 69 69 67 67 66 66 65 65 64 62 61 59 59 59 59 59 60 63 67 67 67 67 67 67 67 67 66 65 65 64 66 68 67 66 65 65 65 65 63 63 63 63 62 59 59 62 63 62 63 63 64 62 62 61 60 59 58 58 58 58 58 58 58 58 58
76 76 75 76 75 74 73 73 73 72 72 72 72 72 72 72 71 71 70 68 68 68 68 65 64 64 65 65 65 64 62 58 58 59 58 58 60 64 66 67 66 66 67 67 66 67 66 65 66 67 67 66 67 65 66 66 64 63 62 61 61 60 59 61 59 59 59 58 59 57 57 57 56 58 58 55 56 58 57 57 57 57 57 55 54
75 75 74 75 74 75 74 73 72 72 71 72 71 70 71 71 71 71 69 68 66 66 66 64 66 66 66 66 65 64 63 61 57 57 56 57 60 65 65 65 66 66 66 67 67 68 67 68 67 67 67 66 65 59 61 62 63 62 61 60 59 58 58 59 59 58 59 58 57 57 56 55 54 53 53 53 57 57 57 56 55 54 54 53 53
74 74 74 74 75 75 74 72 72 71 71 71 71 71 70 70 69 69 68 67 65 64 64 65 64 65 64 64 63 64 63 62 55 55 55 56 60 65 65 66 65 65 66 68 69 69 68 67 67 66 65 66 57 57 59 62 63 62 60 59 58 58 58 57 56 63 58 57 57 57 56 56 55 55 54 54 54 55 58 57 55 54 54 54 52
74 73 74 74 75 74 74 73 72 71 71 71 70 70 69 69 69 69 68 67 67 67 65 65 65 66 63 63 64 64 64 61 55 55 55 55 60 66 66 64 64 67 66 66 66 66 67 66 65 65 65 64 54 56 56 61 62 61 60 59 58 58 58 58 58 57 58 58 59 60 61 58 62 62 61 58 56 57 59 59 58 54 54 52 48
74 73 72 72 74 74 73 74 73 72 71 71 70 70 70 69 69 69 68 68 67 67 66 66 65 65 65 65 67 65 64 65 64 54 54 54 56 65 65 65 63 64 64 65 64 65 66 66 64 57 55 54 52 52 53 54 61 60 60 59 58 57 59 58 58 57 57 55 55 55 56 56 54 53 52 52 53 61 60 60 60 56 50 45 45
73 73 73 71 71 71 71 72 71 72 71 71 70 69 69 69 69 69 67 66 67 66 66 65 65 65 65 65 65 65 65 65 67 54 53 53 55 59 66 64 63 60 61 64 64 63 64 63 64 55 52 51 50 49 49 51 53 60 59 59 60 57 55 57 57 55 55 56 56 56 55 53 52 52 51 51 48 46 46 47 47 47 47 46 43
73 73 73 72 71 71 71 72 72 70 71 71 70 70 69 69 68 67 62 63 64 65 67 66 64 64 65 64 64 64 65 64 66 57 54 53 53 55 64 62 62 64 64 63 61 60 61 63 64 55 51 50 49 47 47 49 53 59 61 48 50 53 56 55 54 53 52 52 52 51 51 51 51 52 51 49 46 48 48 47 47 46 46 44 45
74 73 73 72 72 71 71 72 71 71 71 70 69 69 67 65 64 66 66 65 64 64 63 63 62 61 62 63 62 63 64 66 62 64 54 52 52 53 56 60 57 66 58 60 62 61 62 65 59 51 50 47 46 46 47 49 50 56 47 49 51 51 54 52 53 53 53 52 52 52 52 51 51 49 49 48 48 50 48 49 48 47 48 48 49
74 73 72 72 71 69 70 70 70 70 70 69 68 67 66 67 67 67 66 64 63 63 63 62 60 58 58 60 60 61 65 67 61 58 57 52 51 50 51 53 57 60 62 62 65 65 63 64 58 48 45 43 44 46 47 49 56 46 47 49 51 53 52 53 51 53 54 51 51 51 51 50 49 49 49 49 48 52 51 50 51 50 50 50 50
73 72 72 71 70 69 69 69 70 69 69 68 67 65 67 67 65 66 65 62 61 62 62 61 61 59 57 60 60 60 62 65 63 59 56 53 51 50 51 52 52 53 64 61 62 60 52 47 45 45 45 44 45 48 49 48 48 48 48 48 53 51 52 51 53 52 50 51 51 50 50 50 49 48 50 52 52 52 52 50 48 48 47 48 49
72 72 71 70 70 69 69 68 67 67 67 66 66 66 66 64 63 63 62 60 62 62 62 60 59 60 59 57 57 60 64 64 64 60 56 55 54 52 53 54 57 56 56 56 51 50 49 47 47 47 48 50 55 56 55 57 52 51 51 52 52 49 49 51 51 50 51 50 49 47 45 46 46 50 51 51 51 49 48 47 46 44 44 46 47
71 71 71 70 70 69 69 66 65 64 66 65 65 65 64 63 62 62 60 59 61 61 61 60 59 57 58 57 57 60 63 62 63 61 60 59 60 57 58 58 54 54 58 56 54 54 54 54 55 54 53 54 55 55 54 57 57 55 54 53 51 50 51 52 49 49 49 47 46 46 47 48 49 50 50 49 47 46 46 46 42 41 44 46 49
71 71 70 69 69 68 67 67 65 64 63 63 63 62 62 61 60 62 60 60 59 59 59 57 57 56 55 55 57 60 61 62 62 63 61 60 61 60 59 58 57 58 56 57 58 56 55 54 54 57 56 56 54 54 55 55 54 53 51 50 49 50 49 53 52 49 49 49 47 49 49 49 47 45 44 42 41 42 45 44 43 43 44 48 49
71 70 69 68 67 68 65 65 64 64 64 64 68 70 67 62 61 63 66 66 64 60 61 59 58 56 54 57 57 61 61 62 60 57 66 56 61 59 59 57 56 57 56 54 59 58 58 56 56 54 55 54 55 55 53 52 53 52 51 50 49 49 49 46 46 47 47 46 45 46 43 43 44 43 41 40 43 42 45 45 46 44 46 49 48
70 67 66 65 65 64 64 63 64 63 62 64 62 56 48 43 50 66 59 51 46 44 50 60 56 58 57 62 62 60 59 61 49 49 49 50 50 48 47 48 50 53 51 53 58 55 54 52 52 53 54 53 51 50 47 47 47 46 47 48 47 45 45 45 44 44 45 46 44 41 41 41 41 40 39 39 42 40 42 44 44 45 46 47 46
65 62 63 63 63 64 63 62 64 64 62 62 62 61 58 55 41 40 46 47 43 40 39 41 44 47 60 58 55 46 48 46 44 44 45 44 42 42 42 44 45 46 48 56 52 51 51 52 51 52 51 49 48 45 46 45 45 45 45 45 45 44 44 41 41 44 44 42 40 38 39 39 37 38 37 37 38 37 38 42 41 44 42 44 46
64 63 62 62 66 66 62 62 62 61 61 63 63 63 62 61 58 44 40 42 41 39 39 39 39 41 44 52 57 57 48 43 42 42 42 42 41 41 41 42 42 44 45 48 57 53 52 52 51 50 50 46 46 46 45 44 45 46 45 44 43 42 44 43 45 44 42 39 38 39 39 36 37 38 36 35 36 37 37 37 38 39 40 42 46
62 62 63 64 63 65 61 61 61 61 61 64 62 62 61 61 60 57 54 41 39 40 39 39 39 40 41 42 48 51 49 43 41 41 41 41 41 40 40 40 40 41 47 54 53 51 52 52 50 50 47 45 47 45 48 45 44 44 45 43 41 42 45 47 46 43 41 40 40 38 36 35 35 35 35 37 38 36 37 37 38 38 39 40 44
63 62 62 64 64 64 62 61 61 62 62 64 63 63 61 61 60 59 56 55 56 50 43 40 40 40 39 40 41 41 40 40 40 40 40 41 41 42 45 48 39 40 45 57 52 53 53 53 48 48 47 46 45 45 47 47 47 45 44 42 41 43 44 46 42 38 37 37 37 34 35 34 35 34 36 36 36 35 36 36 38 37 37 38 42
65 65 68 65 64 63 59 62 62 63 62 62 62 61 61 61 61 58 56 55 56 56 55 54 45 39 48 44 39 40 40 40 40 40 40 41 42 42 45 56 56 53 53 54 54 52 50 50 48 48 49 47 48 48 48 48 47 46 43 42 42 40 42 41 37 34 38 37 36 35 36 38 37 36 36 35 35 35 35 36 36 37 37 38 40
65 65 65 64 62 62 61 62 61 60 62 62 62 60 60 59 58 57 54 55 56 57 57 56 51 44 41 39 38 39 39 39 39 40 40 41 42 45 56 54 54 52 51 52 51 50 50 49 49 49 49 49 50 49 49 47 46 44 44 42 41 42 42 38 36 38 41 36 33 36 37 38 36 35 34 34 36 36 35 35 34 35 37 37 40
62 62 62 63 62 62 62 62 63 63 61 60 59 61 60 58 57 56 57 55 59 58 57 55 54 51 49 47 43 40 39 39 39 40 40 41 41 52 56 53 52 53 51 51 50 51 49 49 50 49 49 49 48 48 47 46 46 47 46 44 43 42 41 39 37 38 32 28 35 38 40 37 35 36 33 34 34 35 34 34 35 36 39 38 40
60 59 61 63 63 65 65 63 60 59 60 59 60 58 58 57 57 55 55 56 58 58 58 56 55 55 55 53 49 48 45 41 39 40 40 41 48 53 54 53 53 52 51 50 50 50 49 50 50 50 50 48 48 48 45 46 45 44 41 45 44 43 43 38 36 37 41 42 40 38 37 34 35 34 34 33 34 35 34 34 35 36 37 38 37
63 58 57 60 62 63 61 59 57 56 56 58 58 58 57 56 56 56 57 59 59 57 56 56 56 55 55 54 53 50 50 51 52 53 53 52 51 51 51 52 52 51 51 50 50 50 49 49 49 50 49 48 47 47 46 44 44 44 44 41 42 39 37 36 38 41 38 35 35 35 34 34 35 34 34 32 33 34 34 35 36 36 36 35 36
60 60 57 56 57 57 57 55 55 56 56 57 57 57 59 56 57 60 59 58 57 56 58 57 56 57 56 55 53 53 53 53 53 53 52 52 51 50 51 52 51 52 51 51 49 49 49 48 49 48 49 48 47 46 46 45 45 42 41 40 38 36 33 34 34 33 33 35 34 33 34 34 33 33 32 32 33 34 37 35 35 36 36 35 36
56 57 57 56 57 57 58 56 57 57 57 57 58 57 57 57 58 58 57 56 55 55 55 56 58 60 55 53 49 49 54 53 54 53 52 52 51 52 51 52 52 50 50 49 49 50 49 48 48 47 46 47 46 45 45 44 41 40 40 37 35 31 28 29 32 33 34 36 34 33 34 34 33 33 32 33 36 35 34 35 35 35 35 36 34
56 56 58 58 58 57 56 57 58 59 61 59 59 57 57 57 56 56 57 56 55 55 56 56 58 59 53 47 45 45 54 55 54 52 53 52 51 51 51 51 50 52 49 49 50 50 49 49 47 47 46 46 46 45 43 41 41 40 38 34 32 28 29 30 32 36 36 35 35 35 35 33 33 34 34 36 32 33 33 33 34 35 35 34 35
58 57 57 57 57 57 58 59 61 60 59 58 58 59 58 58 57 57 56 55 55 54 55 57 59 58 54 47 48 46 53 55 56 53 53 52 52 52 52 51 50 51 52 51 50 51 50 48 47 46 47 47 47 42 40 42 42 39 36 32 28 28 30 31 31 32 33 35 34 36 35 33 33 32 32 34 33 33 33 35 35 35 35 35 36
56 56 56 56 58 59 58 57 56 56 57 60 60 59 59 59 56 56 55 55 54 55 54 56 57 57 55 51 50 50 53 53 54 52 53 52 52 52 51 51 50 50 50 50 50 50 49 48 47 46 46 45 45 46 43 41 39 35 32 28 27 29 29 31 32 33 35 35 34 33 33 34 34 32 33 33 33 33 34 35 35 35 34 35 35
57 55 55 56 57 57 56 59 58 60 59 58 57 58 57 55 54 55 55 56 54 54 53 56 56 55 54 54 54 53 53 53 53 52 51 51 51 52 52 51 50 51 50 49 49 50 49 48 47 47 46 45 45 44 43 41 39 35 27 25 28 27 30 33 36 38 37 36 34 36 34 33 33 32 32 32 33 34 34 35 35 39 35 35 35
56 55 54 53 54 56 57 58 58 57 55 54 54 55 54 54 55 55 54 54 55 55 53 52 53 54 55 55 53 53 53 53 53 53 50 50 50 52 53 51 51 50 50 49 49 49 48 48 46 45 46 45 44 43 41 40 36 33 30 28 27 28 31 34 35 35 35 37 36 36 34 35 34 33 35 34 33 33 35 36 37 35 35 35 35
57 54 53 54 55 54 55 57 56 54 55 54 54 54 54 53 55 55 53 53 54 53 53 52 53 51 51 53 54 54 54 53 53 52 52 52 50 50 50 51 50 50 49 49 50 46 47 47 45 45 46 45 44 44 42 37 33 29 29 26 26 27 29 33 37 39 37 38 39 38 37 35 35 35 35 34 34 34 37 35 34 35 35 34 34
55 53 52 54 55 54 54 54 54 55 54 54 53 54 53 53 53 53 53 52 51 51 50 50 49 50 52 52 53 51 52 53 53 52 51 50 50 51 51 52 51 49 48 46 46 46 45 45 46 45 46 45 45 43 42 40 34 30 29 32 32 35 33 37 35 33 37 40 38 35 34 35 36 37 35 35 36 36 37 35 34 32 34 34 33
55 54 54 53 52 51 52 53 54 53 54 53 52 51 50 50 51 51 52 50 49 49 46 42 44 48 49 51 50 49 50 49 49 49 49 49 51 51 51 51 51 49 46 44 44 46 46 46 46 46 45 45 45 43 42 40 35 32 32 33 33 35 31 31 28 32 31 31 30 33 37 38 38 38 36 36 36 35 35 36 34 33 33 34 32
52 51 50 50 51 52 53 54 53 53 51 52 52 50 49 50 48 48 47 45 43 43 42 44 42 43 42 41 43 44 46 46 45 47 47 48 48 49 51 50 50 48 46 44 43 44 45 46 46 46 45 45 44 44 41 38 36 33 34 33 32 31 32 29 28 31 32 29 33 36 35 35 38 38 36 36 37 35 34 33 35 34 33 33 33
53 52 52 52 51 52 52 52 52 51 52 50 49 47 47 46 45 44 44 42 42 42 40 43 42 42 44 42 44 45 45 47 46 46 48 48 48 49 50 49 48 48 46 45 44 44 46 45 45 45 45 44 43 42 41 37 36 38 32 31 30 31 29 29 32 33 33 36 33 32 33 36 38 38 38 37 36 33 31 33 35 35 34 32 32